| time (UTC) | temp F | wind direction | speed MPH | gust MPH | rain 1hr in | rain 24hr in | rain mn in | humidity % | barometer mb |
| 20260902120545 | 76 | 215 | 0.0 | 3.0 | 0.00 | 0.00 | 0.00 | 69 | 1015.1 |
| 20260902120104 | 76 | 0 | 1.0 | 7.0 | 0.00 | 0.00 | 0.00 | 69 | 1015.1 |
| 20260902115540 | 76 | 0 | 0.0 | 7.0 | 0.00 | 0.00 | 0.00 | 69 | 1015.1 |
| 20260902115041 | 76 | 169 | 0.0 | 4.0 | 0.00 | 0.00 | 0.00 | 69 | 1015.0 |
| 20260902114559 | 76 | 172 | 0.0 | 5.0 | 0.00 | 0.00 | 0.00 | 69 | 1014.9 |
| 20260902114041 | 77 | 223 | 1.0 | 5.0 | 0.00 | 0.00 | 0.00 | 69 | 1014.9 |
| 20260902113618 | 77 | 212 | 0.0 | 4.0 | 0.00 | 0.00 | 0.00 | 68 | 1014.9 |
| 20260902113105 | 77 | 0 | 0.0 | 7.0 | 0.00 | 0.00 | 0.00 | 68 | 1014.9 |
| 20260902112540 | 77 | 0 | 1.0 | 7.0 | 0.00 | 0.00 | 0.00 | 68 | 1014.8 |
| 20260902112044 | 77 | 212 | 1.0 | 8.0 | 0.00 | 0.00 | 0.00 | 68 | 1014.9 |
| 20260902111557 | 77 | 193 | 0.0 | 8.0 | 0.00 | 0.00 | 0.00 | 68 | 1014.8 |
| 20260902111044 | 77 | 219 | 1.0 | 7.0 | 0.00 | 0.00 | 0.00 | 67 | 1014.7 |
| 20260902110555 | 77 | 0 | 1.0 | 8.0 | 0.00 | 0.00 | 0.00 | 67 | 1014.8 |
| 20260902110055 | 77 | 190 | 2.0 | 8.0 | 0.00 | 0.00 | 0.00 | 67 | 1014.8 |
| 20260902105540 | 78 | 217 | 1.0 | 5.0 | 0.00 | 0.00 | 0.00 | 66 | 1014.8 |
| 20260902105043 | 78 | 229 | 0.0 | 5.0 | 0.00 | 0.00 | 0.00 | 66 | 1014.7 |
| 20260902104612 | 78 | 0 | 0.0 | 7.0 | 0.00 | 0.00 | 0.00 | 65 | 1014.7 |
| 20260902104042 | 78 | 227 | 2.0 | 8.0 | 0.00 | 0.00 | 0.00 | 65 | 1014.7 |
| 20260902103540 | 79 | 170 | 1.0 | 8.0 | 0.00 | 0.00 | 0.00 | 64 | 1014.7 |
| 20260902103104 | 79 | 197 | 3.0 | 8.0 | 0.00 | 0.00 | 0.00 | 64 | 1014.6 |
| 20260902102544 | 79 | 261 | 3.0 | 6.0 | 0.00 | 0.00 | 0.00 | 64 | 1014.6 |
| 20260902102040 | 79 | 175 | 3.0 | 6.0 | 0.00 | 0.00 | 0.00 | 63 | 1014.6 |
| 20260902101556 | 79 | 175 | 2.0 | 6.0 | 0.00 | 0.00 | 0.00 | 63 | 1014.5 |
| 20260902101047 | 80 | 152 | 2.0 | 10.0 | 0.00 | 0.00 | 0.00 | 62 | 1014.6 |
| 20260902100543 | 80 | 193 | 3.0 | 10.0 | 0.00 | 0.00 | 0.00 | 62 | 1014.4 |
| 20260902100054 | 80 | 0 | 2.0 | 7.0 | 0.00 | 0.00 | 0.00 | 62 | 1014.5 |
| 20260902095543 | 80 | 221 | 3.0 | 7.0 | 0.00 | 0.00 | 0.00 | 62 | 1014.4 |
| 20260902095045 | 80 | 199 | 2.0 | 7.0 | 0.00 | 0.00 | 0.00 | 62 | 1014.4 |
| 20260902094602 | 80 | 252 | 3.0 | 7.0 | 0.00 | 0.00 | 0.00 | 62 | 1014.5 |
| 20260902094041 | 80 | 234 | 2.0 | 7.0 | 0.00 | 0.00 | 0.00 | 62 | 1014.5 |
| 20260902093541 | 80 | 216 | 2.0 | 6.0 | 0.00 | 0.00 | 0.00 | 62 | 1014.4 |
| 20260902093059 | 80 | 232 | 2.0 | 6.0 | 0.00 | 0.00 | 0.00 | 62 | 1014.4 |
| 20260902092545 | 80 | 219 | 2.0 | 7.0 | 0.00 | 0.00 | 0.00 | 61 | 1014.4 |
| 20260902092047 | 80 | 238 | 2.0 | 7.0 | 0.00 | 0.00 | 0.00 | 61 | 1014.3 |
| 20260902091612 | 80 | 205 | 2.0 | 9.0 | 0.00 | 0.00 | 0.00 | 61 | 1014.2 |
| 20260902091044 | 80 | 204 | 3.0 | 9.0 | 0.00 | 0.00 | 0.00 | 61 | 1014.2 |
| 20260902090547 | 80 | 229 | 3.0 | 9.0 | 0.00 | 0.00 | 0.00 | 61 | 1014.2 |
| 20260902090107 | 80 | 176 | 3.0 | 7.0 | 0.00 | 0.00 | 0.00 | 61 | 1014.2 |
| 20260902085544 | 80 | 207 | 2.0 | 7.0 | 0.00 | 0.00 | 0.00 | 61 | 1014.2 |
| 20260902085044 | 80 | 186 | 2.0 | 7.0 | 0.00 | 0.00 | 0.00 | 61 | 1014.2 |
| 20260902084607 | 80 | 255 | 2.0 | 8.0 | 0.00 | 0.00 | 0.00 | 61 | 1014.1 |
| 20260902084045 | 80 | 238 | 3.0 | 9.0 | 0.00 | 0.00 | 0.00 | 61 | 1014.2 |
| 20260902083546 | 80 | 244 | 3.0 | 9.0 | 0.00 | 0.00 | 0.00 | 61 | 1014.1 |
| 20260902083114 | 80 | 236 | 3.0 | 7.0 | 0.00 | 0.00 | 0.00 | 61 | 1014.1 |
| 20260902082541 | 80 | 209 | 3.0 | 7.0 | 0.00 | 0.00 | 0.00 | 61 | 1014.1 |
| 20260902082044 | 80 | 233 | 2.0 | 8.0 | 0.00 | 0.00 | 0.00 | 61 | 1014.0 |
| 20260902081601 | 80 | 242 | 3.0 | 8.0 | 0.00 | 0.00 | 0.00 | 61 | 1014.0 |
| 20260902081044 | 80 | 211 | 2.0 | 7.0 | 0.00 | 0.00 | 0.00 | 61 | 1014.1 |
| 20260902080544 | 80 | 242 | 2.0 | 9.0 | 0.00 | 0.00 | 0.00 | 61 | 1014.0 |
| 20260902075549 | 80 | 211 | 3.0 | 9.0 | 0.00 | 0.00 | 0.00 | 61 | 1014.0 |
| 20260902075044 | 80 | 167 | 2.0 | 7.0 | 0.00 | 0.00 | 0.00 | 61 | 1014.0 |
| 20260902074619 | 80 | 227 | 3.0 | 6.0 | 0.00 | 0.00 | 0.00 | 61 | 1013.9 |
| 20260902074046 | 80 | 246 | 2.0 | 6.0 | 0.00 | 0.00 | 0.00 | 61 | 1013.9 |
| 20260902073544 | 80 | 0 | 2.0 | 6.0 | 0.00 | 0.00 | 0.00 | 61 | 1014.0 |
| 20260902073059 | 80 | 215 | 2.0 | 5.0 | 0.00 | 0.00 | 0.00 | 61 | 1014.0 |
| 20260902072547 | 80 | 229 | 2.0 | 6.0 | 0.00 | 0.00 | 0.00 | 61 | 1014.0 |
| 20260902072044 | 80 | 229 | 1.0 | 6.0 | 0.00 | 0.00 | 0.00 | 61 | 1014.0 |
| 20260902071558 | 80 | 219 | 1.0 | 7.0 | 0.00 | 0.00 | 0.00 | 61 | 1014.0 |
| 20260902071044 | 81 | 157 | 2.0 | 9.0 | 0.00 | 0.00 | 0.00 | 60 | 1014.0 |
| 20260902070544 | 81 | 213 | 2.0 | 9.0 | 0.00 | 0.00 | 0.00 | 60 | 1014.0 |
| 20260902070114 | 81 | 218 | 2.0 | 9.0 | 0.00 | 0.00 | 0.00 | 60 | 1014.0 |
| 20260902065544 | 81 | 214 | 3.0 | 8.0 | 0.00 | 0.00 | 0.00 | 60 | 1014.0 |
| 20260902065045 | 81 | 228 | 3.0 | 8.0 | 0.00 | 0.00 | 0.00 | 60 | 1014.0 |
| 20260902064604 | 81 | 252 | 3.0 | 8.0 | 0.00 | 0.00 | 0.00 | 60 | 1014.0 |
| 20260902064047 | 81 | 235 | 2.0 | 6.0 | 0.00 | 0.00 | 0.00 | 60 | 1014.1 |
| 20260902063544 | 81 | 258 | 1.0 | 4.0 | 0.00 | 0.00 | 0.00 | 60 | 1014.1 |
| 20260902063101 | 81 | 248 | 1.0 | 4.0 | 0.00 | 0.00 | 0.00 | 61 | 1014.1 |
| 20260902062545 | 81 | 0 | 1.0 | 5.0 | 0.00 | 0.00 | 0.00 | 60 | 1014.2 |
| 20260902062044 | 81 | 240 | 1.0 | 5.0 | 0.00 | 0.00 | 0.00 | 60 | 1014.1 |
| 20260902061600 | 81 | 205 | 0.0 | 6.0 | 0.00 | 0.00 | 0.00 | 60 | 1014.1 |
| 20260902061044 | 81 | 184 | 0.0 | 6.0 | 0.00 | 0.00 | 0.00 | 60 | 1014.1 |
| 20260902060546 | 81 | 213 | 2.0 | 6.0 | 0.00 | 0.00 | 0.00 | 60 | 1014.2 |
| 20260902060107 | 81 | 219 | 2.0 | 5.0 | 0.00 | 0.00 | 0.00 | 60 | 1014.1 |
| 20260902055544 | 81 | 216 | 0.0 | 6.0 | 0.00 | 0.00 | 0.00 | 60 | 1014.1 |
| 20260902055044 | 82 | 227 | 1.0 | 6.0 | 0.00 | 0.00 | 0.00 | 59 | 1014.1 |
| 20260902054609 | 81 | 227 | 2.0 | 6.0 | 0.00 | 0.00 | 0.00 | 60 | 1014.1 |
| 20260902054044 | 81 | 244 | 2.0 | 8.0 | 0.00 | 0.00 | 0.00 | 59 | 1014.2 |
| 20260902053544 | 81 | 168 | 2.0 | 8.0 | 0.00 | 0.00 | 0.00 | 59 | 1014.1 |
| 20260902053113 | 82 | 213 | 1.0 | 5.0 | 0.00 | 0.00 | 0.00 | 59 | 1014.1 |
| 20260902052546 | 82 | 198 | 1.0 | 7.0 | 0.00 | 0.00 | 0.00 | 58 | 1014.1 |
| 20260902052045 | 82 | 180 | 1.0 | 7.0 | 0.00 | 0.00 | 0.00 | 58 | 1014.2 |
| 20260902051619 | 82 | 222 | 0.0 | 5.0 | 0.00 | 0.00 | 0.00 | 58 | 1014.2 |
| 20260902051042 | 82 | 219 | 1.0 | 8.0 | 0.00 | 0.00 | 0.00 | 58 | 1014.2 |
| 20260902050546 | 82 | 0 | 2.0 | 8.0 | 0.00 | 0.00 | 0.00 | 57 | 1014.2 |
| 20260902050110 | 83 | 164 | 2.0 | 7.0 | 0.00 | 0.00 | 0.00 | 57 | 1014.2 |
| 20260902045543 | 83 | 209 | 1.0 | 9.0 | 0.00 | 0.00 | 0.00 | 57 | 1014.1 |
| 20260902045047 | 83 | 175 | 1.0 | 11.0 | 0.00 | 0.00 | 0.00 | 56 | 1014.1 |
| 20260902044605 | 83 | 226 | 2.0 | 11.0 | 0.00 | 0.00 | 0.00 | 56 | 1014.0 |
| 20260902044045 | 83 | 234 | 2.0 | 11.0 | 0.00 | 0.00 | 0.00 | 56 | 1013.9 |
| 20260902043544 | 84 | 214 | 3.0 | 11.0 | 0.00 | 0.00 | 0.00 | 55 | 1014.0 |
| 20260902043119 | 84 | 206 | 2.0 | 9.0 | 0.00 | 0.00 | 0.00 | 55 | 1014.0 |
| 20260902042547 | 84 | 218 | 2.0 | 8.0 | 0.00 | 0.00 | 0.00 | 55 | 1014.0 |
| 20260902042044 | 84 | 181 | 2.0 | 6.0 | 0.00 | 0.00 | 0.00 | 55 | 1014.0 |
| 20260902041559 | 84 | 157 | 1.0 | 7.0 | 0.00 | 0.00 | 0.00 | 55 | 1014.0 |
| 20260902041040 | 84 | 230 | 2.0 | 7.0 | 0.00 | 0.00 | 0.00 | 55 | 1014.1 |
| 20260902040540 | 84 | 224 | 2.0 | 7.0 | 0.00 | 0.00 | 0.00 | 55 | 1014.2 |
| 20260902040056 | 84 | 174 | 2.0 | 7.0 | 0.00 | 0.00 | 0.00 | 55 | 1014.2 |
| 20260902035539 | 84 | 192 | 3.0 | 7.0 | 0.00 | 0.00 | 0.00 | 55 | 1014.2 |
| 20260902035039 | 84 | 214 | 3.0 | 7.0 | 0.00 | 0.00 | 0.00 | 55 | 1014.1 |
| 20260902034601 | 83 | 227 | 2.0 | 9.0 | 0.00 | 0.00 | 0.00 | 55 | 1014.1 |
| 20260902034044 | 84 | 231 | 3.0 | 9.0 | 0.00 | 0.00 | 0.00 | 55 | 1014.0 |
| 20260902033540 | 84 | 265 | 2.0 | 6.0 | 0.00 | 0.00 | 0.00 | 55 | 1014.0 |
| 20260902033057 | 84 | 212 | 2.0 | 6.0 | 0.00 | 0.00 | 0.00 | 55 | 1014.1 |
| 20260902032541 | 84 | 202 | 2.0 | 6.0 | 0.00 | 0.00 | 0.00 | 55 | 1014.0 |
| 20260902032045 | 84 | 161 | 1.0 | 4.0 | 0.00 | 0.00 | 0.00 | 55 | 1014.0 |
| 20260902031604 | 84 | 215 | 1.0 | 4.0 | 0.00 | 0.00 | 0.00 | 56 | 1014.0 |
| 20260902031043 | 84 | 227 | 0.0 | 4.0 | 0.00 | 0.00 | 0.00 | 55 | 1013.9 |
| 20260902030546 | 84 | 0 | 1.0 | 4.0 | 0.00 | 0.00 | 0.00 | 55 | 1013.8 |
| 20260902030100 | 84 | 0 | 1.0 | 4.0 | 0.00 | 0.00 | 0.00 | 55 | 1013.8 |
| 20260902025544 | 84 | 183 | 0.0 | 4.0 | 0.00 | 0.00 | 0.00 | 55 | 1013.7 |
| 20260902025046 | 85 | 206 | 1.0 | 4.0 | 0.00 | 0.00 | 0.00 | 54 | 1013.7 |
| 20260902024600 | 85 | 0 | 0.0 | 4.0 | 0.00 | 0.00 | 0.00 | 54 | 1013.6 |
| 20260902024044 | 85 | 244 | 0.0 | 4.0 | 0.00 | 0.00 | 0.00 | 53 | 1013.6 |
| 20260902023544 | 85 | 211 | 0.0 | 4.0 | 0.00 | 0.00 | 0.00 | 53 | 1013.5 |
| 20260902023115 | 85 | 0 | 1.0 | 7.0 | 0.00 | 0.00 | 0.00 | 53 | 1013.5 |
| 20260902022545 | 86 | 196 | 2.0 | 7.0 | 0.00 | 0.00 | 0.00 | 52 | 1013.5 |
| 20260902022044 | 86 | 186 | 0.0 | 4.0 | 0.00 | 0.00 | 0.00 | 53 | 1013.4 |
| 20260902021557 | 86 | 218 | 1.0 | 4.0 | 0.00 | 0.00 | 0.00 | 53 | 1013.4 |
| 20260902021046 | 85 | 182 | 0.0 | 5.0 | 0.00 | 0.00 | 0.00 | 53 | 1013.4 |
| 20260902020544 | 86 | 0 | 0.0 | 5.0 | 0.00 | 0.00 | 0.00 | 53 | 1013.4 |
| 20260902015545 | 86 | 0 | 0.0 | 5.0 | 0.00 | 0.00 | 0.00 | 53 | 1013.3 |
| 20260902015044 | 86 | 0 | 0.0 | 6.0 | 0.00 | 0.00 | 0.00 | 53 | 1013.4 |
| 20260902014557 | 86 | 213 | 0.0 | 6.0 | 0.00 | 0.00 | 0.00 | 52 | 1013.4 |
| 20260902014044 | 86 | 0 | 0.0 | 3.0 | 0.00 | 0.00 | 0.00 | 52 | 1013.3 |
| 20260902013544 | 86 | 0 | 0.0 | 3.0 | 0.00 | 0.00 | 0.00 | 52 | 1013.1 |
| 20260902013059 | 86 | 237 | 0.0 | 3.0 | 0.00 | 0.00 | 0.00 | 53 | 1013.2 |
| 20260902012544 | 86 | 0 | 0.0 | 3.0 | 0.00 | 0.00 | 0.00 | 53 | 1013.1 |
| 20260902012045 | 86 | 0 | 0.0 | 2.0 | 0.00 | 0.00 | 0.00 | 53 | 1013.1 |
| 20260902011634 | 87 | 0 | 0.0 | 2.0 | 0.00 | 0.00 | 0.00 | 53 | 1013.1 |
| 20260902011045 | 87 | 0 | 0.0 | 1.0 | 0.00 | 0.00 | 0.00 | 53 | 1013.1 |
| 20260902010544 | 87 | 0 | 0.0 | 1.0 | 0.00 | 0.00 | 0.00 | 52 | 1013.1 |
| 20260902010058 | 88 | 0 | 0.0 | 1.0 | 0.00 | 0.00 | 0.00 | 51 | 1013.0 |
| 20260902005544 | 88 | 0 | 0.0 | 1.0 | 0.00 | 0.00 | 0.00 | 50 | 1013.0 |
| 20260902005045 | 89 | 0 | 0.0 | 1.0 | 0.00 | 0.00 | 0.00 | 49 | 1013.1 |
| 20260902004601 | 89 | 0 | 0.0 | 1.0 | 0.00 | 0.00 | 0.00 | 49 | 1013.1 |
| 20260902004045 | 89 | 0 | 0.0 | 1.0 | 0.00 | 0.00 | 0.00 | 48 | 1013.1 |
| 20260902003544 | 90 | 0 | 0.0 | 1.0 | 0.00 | 0.00 | 0.00 | 47 | 1013.0 |
| 20260902003108 | 90 | 0 | 0.0 | 1.0 | 0.00 | 0.00 | 0.00 | 46 | 1013.1 |
| 20260902002544 | 91 | 217 | 0.0 | 2.0 | 0.00 | 0.00 | 0.00 | 46 | 1013.2 |
| 20260902002045 | 91 | 0 | 0.0 | 2.0 | 0.00 | 0.00 | 0.00 | 46 | 1013.1 |
| 20260902001601 | 92 | 0 | 0.0 | 2.0 | 0.00 | 0.00 | 0.00 | 44 | 1013.2 |
| 20260902001045 | 92 | 0 | 0.0 | 2.0 | 0.00 | 0.00 | 0.00 | 44 | 1013.3 |
| 20260902000544 | 93 | 0 | 0.0 | 6.0 | 0.00 | 0.00 | 0.00 | 43 | 1013.4 |
| 20260902000105 | 94 | 218 | 1.0 | 6.0 | 0.00 | 0.00 | 0.00 | 42 | 1013.3 |
| 20260901235545 | 94 | 214 | 1.0 | 4.0 | 0.00 | 0.00 | 0.00 | 41 | 1013.4 |
| 20260901235046 | 94 | 204 | 1.0 | 5.0 | 0.00 | 0.00 | 0.00 | 40 | 1013.4 |
| 20260901234605 | 95 | 214 | 0.0 | 5.0 | 0.00 | 0.00 | 0.00 | 39 | 1013.3 |
| 20260901234040 | 95 | 105 | 0.0 | 5.0 | 0.00 | 0.00 | 0.00 | 39 | 1013.3 |
| 20260901233542 | 95 | 243 | 0.0 | 8.0 | 0.00 | 0.00 | 0.00 | 38 | 1013.3 |
| 20260901233103 | 96 | 180 | 1.0 | 8.0 | 0.00 | 0.00 | 0.00 | 37 | 1013.4 |
| 20260901232544 | 96 | 209 | 3.0 | 8.0 | 0.00 | 0.00 | 0.00 | 37 | 1013.4 |
| 20260901232044 | 96 | 217 | 0.0 | 8.0 | 0.00 | 0.00 | 0.00 | 38 | 1013.3 |
| 20260901231615 | 96 | 153 | 2.0 | 11.0 | 0.00 | 0.00 | 0.00 | 37 | 1013.4 |
| 20260901231043 | 97 | 226 | 1.0 | 11.0 | 0.00 | 0.00 | 0.00 | 36 | 1013.4 |
| 20260901230544 | 97 | 261 | 4.0 | 11.0 | 0.00 | 0.00 | 0.00 | 35 | 1013.4 |
| 20260901230114 | 97 | 0 | 2.0 | 11.0 | 0.00 | 0.00 | 0.00 | 35 | 1013.3 |
| 20260901225546 | 97 | 228 | 3.0 | 11.0 | 0.00 | 0.00 | 0.00 | 34 | 1013.4 |
| 20260901225043 | 98 | 183 | 4.0 | 12.0 | 0.00 | 0.00 | 0.00 | 33 | 1013.4 |
| 20260901224605 | 98 | 201 | 2.0 | 12.0 | 0.00 | 0.00 | 0.00 | 34 | 1013.4 |
| 20260901224044 | 98 | 226 | 5.0 | 12.0 | 0.00 | 0.00 | 0.00 | 33 | 1013.4 |
| 20260901223546 | 98 | 200 | 5.0 | 11.0 | 0.00 | 0.00 | 0.00 | 34 | 1013.5 |
| 20260901223103 | 98 | 234 | 3.0 | 8.0 | 0.00 | 0.00 | 0.00 | 34 | 1013.4 |
| 20260901222544 | 98 | 230 | 2.0 | 8.0 | 0.00 | 0.00 | 0.00 | 34 | 1013.3 |
| 20260901222044 | 98 | 204 | 3.0 | 12.0 | 0.00 | 0.00 | 0.00 | 33 | 1013.4 |
| 20260901221626 | 98 | 224 | 4.0 | 12.0 | 0.00 | 0.00 | 0.00 | 33 | 1013.4 |
| 20260901221044 | 99 | 234 | 4.0 | 12.0 | 0.00 | 0.00 | 0.00 | 33 | 1013.4 |
| 20260901220546 | 99 | 207 | 4.0 | 12.0 | 0.00 | 0.00 | 0.00 | 32 | 1013.4 |
| 20260901220121 | 99 | 204 | 7.0 | 11.0 | 0.00 | 0.00 | 0.00 | 32 | 1013.4 |
| 20260901215544 | 99 | 217 | 3.0 | 11.0 | 0.00 | 0.00 | 0.00 | 32 | 1013.4 |
| 20260901215044 | 99 | 271 | 2.0 | 11.0 | 0.00 | 0.00 | 0.00 | 32 | 1013.4 |
| 20260901214604 | 99 | 232 | 5.0 | 10.0 | 0.00 | 0.00 | 0.00 | 33 | 1013.5 |
| 20260901214044 | 99 | 198 | 3.0 | 15.0 | 0.00 | 0.00 | 0.00 | 32 | 1013.5 |
| 20260901213544 | 100 | 221 | 5.0 | 15.0 | 0.00 | 0.00 | 0.00 | 32 | 1013.4 |
| 20260901213110 | 99 | 169 | 5.0 | 12.0 | 0.00 | 0.00 | 0.00 | 32 | 1013.5 |
| 20260901212544 | 100 | 238 | 3.0 | 12.0 | 0.00 | 0.00 | 0.00 | 33 | 1013.6 |
| 20260901212045 | 100 | 182 | 4.0 | 12.0 | 0.00 | 0.00 | 0.00 | 32 | 1013.5 |
| 20260901211602 | 100 | 211 | 5.0 | 14.0 | 0.00 | 0.00 | 0.00 | 31 | 1013.6 |
| 20260901211045 | 100 | 148 | 3.0 | 14.0 | 0.00 | 0.00 | 0.00 | 32 | 1013.6 |
| 20260901210544 | 100 | 221 | 6.0 | 15.0 | 0.00 | 0.00 | 0.00 | 30 | 1013.7 |
| 20260901210116 | 100 | 276 | 5.0 | 15.0 | 0.00 | 0.00 | 0.00 | 31 | 1013.8 |
| 20260901205544 | 100 | 215 | 4.0 | 10.0 | 0.00 | 0.00 | 0.00 | 32 | 1013.8 |
| 20260901205044 | 100 | 282 | 3.0 | 14.0 | 0.00 | 0.00 | 0.00 | 32 | 1013.8 |
| 20260901204622 | 100 | 201 | 3.0 | 14.0 | 0.00 | 0.00 | 0.00 | 32 | 1013.9 |
| 20260901204044 | 99 | 223 | 3.0 | 15.0 | 0.00 | 0.00 | 0.00 | 32 | 1014.0 |
| 20260901203546 | 100 | 197 | 5.0 | 15.0 | 0.00 | 0.00 | 0.00 | 32 | 1014.0 |
| 20260901203102 | 100 | 207 | 3.0 | 12.0 | 0.00 | 0.00 | 0.00 | 32 | 1014.1 |
| 20260901202543 | 100 | 175 | 2.0 | 9.0 | 0.00 | 0.00 | 0.00 | 34 | 1014.1 |
| 20260901202048 | 100 | 203 | 4.0 | 11.0 | 0.00 | 0.00 | 0.00 | 32 | 1014.1 |
| 20260901201603 | 99 | 250 | 3.0 | 15.0 | 0.00 | 0.00 | 0.00 | 33 | 1014.2 |
| 20260901201046 | 99 | 186 | 2.0 | 16.0 | 0.00 | 0.00 | 0.00 | 34 | 1014.1 |
| 20260901200544 | 100 | 189 | 5.0 | 16.0 | 0.00 | 0.00 | 0.00 | 33 | 1014.3 |
| 20260901200122 | 100 | 203 | 4.0 | 17.0 | 0.00 | 0.00 | 0.00 | 33 | 1014.3 |
| 20260901195545 | 100 | 252 | 3.0 | 17.0 | 0.00 | 0.00 | 0.00 | 34 | 1014.5 |
| 20260901195042 | 100 | 212 | 3.0 | 14.0 | 0.00 | 0.00 | 0.00 | 34 | 1014.5 |
| 20260901194611 | 100 | 273 | 5.0 | 14.0 | 0.00 | 0.00 | 0.00 | 33 | 1014.6 |
| 20260901194047 | 100 | 246 | 4.0 | 11.0 | 0.00 | 0.00 | 0.00 | 34 | 1014.6 |
| 20260901193544 | 100 | 207 | 3.0 | 10.0 | 0.00 | 0.00 | 0.00 | 37 | 1014.6 |
| 20260901193058 | 100 | 198 | 3.0 | 12.0 | 0.00 | 0.00 | 0.00 | 35 | 1014.6 |
| 20260901192546 | 99 | 174 | 3.0 | 14.0 | 0.00 | 0.00 | 0.00 | 35 | 1014.6 |
| 20260901192048 | 99 | 213 | 6.0 | 15.0 | 0.00 | 0.00 | 0.00 | 34 | 1014.8 |
| 20260901191634 | 100 | 221 | 8.0 | 15.0 | 0.00 | 0.00 | 0.00 | 34 | 1014.9 |
| 20260901191047 | 100 | 195 | 5.0 | 13.0 | 0.00 | 0.00 | 0.00 | 34 | 1014.9 |
| 20260901190543 | 101 | 186 | 2.0 | 12.0 | 0.00 | 0.00 | 0.00 | 36 | 1014.8 |
| 20260901190106 | 100 | 233 | 4.0 | 12.0 | 0.00 | 0.00 | 0.00 | 34 | 1015.0 |
| 20260901185546 | 100 | 221 | 6.0 | 14.0 | 0.00 | 0.00 | 0.00 | 34 | 1015.0 |
| 20260901185045 | 100 | 225 | 4.0 | 14.0 | 0.00 | 0.00 | 0.00 | 35 | 1014.9 |
| 20260901184557 | 100 | 220 | 5.0 | 14.0 | 0.00 | 0.00 | 0.00 | 36 | 1015.0 |
| 20260901184044 | 100 | 254 | 5.0 | 14.0 | 0.00 | 0.00 | 0.00 | 35 | 1015.1 |
| 20260901183546 | 99 | 316 | 2.0 | 14.0 | 0.00 | 0.00 | 0.00 | 37 | 1015.1 |
| 20260901183056 | 99 | 227 | 5.0 | 14.0 | 0.00 | 0.00 | 0.00 | 36 | 1015.1 |
| 20260901182544 | 99 | 217 | 3.0 | 16.0 | 0.00 | 0.00 | 0.00 | 38 | 1015.1 |
| 20260901182045 | 98 | 193 | 6.0 | 16.0 | 0.00 | 0.00 | 0.00 | 38 | 1015.3 |
| 20260901181619 | 98 | 205 | 4.0 | 16.0 | 0.00 | 0.00 | 0.00 | 38 | 1015.4 |
| 20260901181040 | 99 | 250 | 3.0 | 11.0 | 0.00 | 0.00 | 0.00 | 38 | 1015.3 |
| 20260901180541 | 99 | 245 | 4.0 | 11.0 | 0.00 | 0.00 | 0.00 | 38 | 1015.5 |
| 20260901180058 | 98 | 239 | 4.0 | 11.0 | 0.00 | 0.00 | 0.00 | 42 | 1015.6 |
| 20260901175543 | 97 | 199 | 2.0 | 11.0 | 0.00 | 0.00 | 0.00 | 43 | 1015.6 |
| 20260901175044 | 97 | 234 | 3.0 | 11.0 | 0.00 | 0.00 | 0.00 | 41 | 1015.7 |
| 20260901174557 | 97 | 171 | 2.0 | 15.0 | 0.00 | 0.00 | 0.00 | 44 | 1015.8 |
| 20260901174046 | 96 | 221 | 4.0 | 15.0 | 0.00 | 0.00 | 0.00 | 42 | 1015.9 |
| 20260901173547 | 97 | 178 | 4.0 | 15.0 | 0.00 | 0.00 | 0.00 | 41 | 1016.0 |
| 20260901173118 | 96 | 247 | 2.0 | 11.0 | 0.00 | 0.00 | 0.00 | 43 | 1016.1 |
| 20260901172547 | 96 | 274 | 4.0 | 11.0 | 0.00 | 0.00 | 0.00 | 43 | 1016.2 |
| 20260901172043 | 95 | 269 | 2.0 | 9.0 | 0.00 | 0.00 | 0.00 | 44 | 1016.3 |
| 20260901171606 | 95 | 328 | 2.0 | 10.0 | 0.00 | 0.00 | 0.00 | 45 | 1016.2 |
| 20260901171041 | 94 | 221 | 3.0 | 12.0 | 0.00 | 0.00 | 0.00 | 45 | 1016.3 |
| 20260901170542 | 94 | 209 | 4.0 | 12.0 | 0.00 | 0.00 | 0.00 | 43 | 1016.2 |
| 20260901170104 | 95 | 176 | 6.0 | 12.0 | 0.00 | 0.00 | 0.00 | 43 | 1016.3 |
| 20260901165544 | 94 | 191 | 2.0 | 7.0 | 0.00 | 0.00 | 0.00 | 45 | 1016.3 |
| 20260901165045 | 93 | 232 | 2.0 | 8.0 | 0.00 | 0.00 | 0.00 | 45 | 1016.4 |
| 20260901164618 | 94 | 267 | 3.0 | 11.0 | 0.00 | 0.00 | 0.00 | 44 | 1016.5 |
| 20260901164043 | 92 | 238 | 1.0 | 11.0 | 0.00 | 0.00 | 0.00 | 46 | 1016.5 |
| 20260901163541 | 92 | 228 | 2.0 | 10.0 | 0.00 | 0.00 | 0.00 | 46 | 1016.4 |
| 20260901163058 | 92 | 163 | 2.0 | 10.0 | 0.00 | 0.00 | 0.00 | 47 | 1016.4 |
| 20260901162541 | 92 | 196 | 2.0 | 10.0 | 0.00 | 0.00 | 0.00 | 47 | 1016.5 |
| 20260901162041 | 91 | 206 | 2.0 | 10.0 | 0.00 | 0.00 | 0.00 | 51 | 1016.5 |
| 20260901161557 | 91 | 344 | 2.0 | 6.0 | 0.00 | 0.00 | 0.00 | 47 | 1016.5 |
| 20260901161044 | 90 | 258 | 1.0 | 4.0 | 0.00 | 0.00 | 0.00 | 50 | 1016.5 |
| 20260901160544 | 90 | 263 | 0.0 | 9.0 | 0.00 | 0.00 | 0.00 | 52 | 1016.5 |
| 20260901160117 | 89 | 235 | 2.0 | 12.0 | 0.00 | 0.00 | 0.00 | 50 | 1016.5 |
| 20260901155544 | 90 | 217 | 4.0 | 12.0 | 0.00 | 0.00 | 0.00 | 49 | 1016.4 |
| 20260901155045 | 89 | 215 | 4.0 | 12.0 | 0.00 | 0.00 | 0.00 | 49 | 1016.2 |
| 20260901154600 | 89 | 243 | 2.0 | 10.0 | 0.00 | 0.00 | 0.00 | 52 | 1016.1 |
| 20260901154040 | 88 | 173 | 2.0 | 15.0 | 0.00 | 0.00 | 0.00 | 51 | 1016.1 |
| 20260901153541 | 88 | 234 | 3.0 | 15.0 | 0.00 | 0.00 | 0.00 | 52 | 1016.1 |
| 20260901153125 | 88 | 207 | 3.0 | 10.0 | 0.00 | 0.00 | 0.00 | 52 | 1016.2 |
| 20260901152543 | 88 | 219 | 3.0 | 12.0 | 0.00 | 0.00 | 0.00 | 52 | 1016.1 |
| 20260901152043 | 86 | 147 | 3.0 | 12.0 | 0.00 | 0.00 | 0.00 | 54 | 1016.2 |
| 20260901151600 | 86 | 209 | 3.0 | 12.0 | 0.00 | 0.00 | 0.00 | 54 | 1016.1 |
| 20260901151045 | 86 | 229 | 4.0 | 12.0 | 0.00 | 0.00 | 0.00 | 53 | 1016.1 |
| 20260901150543 | 86 | 127 | 4.0 | 12.0 | 0.00 | 0.00 | 0.00 | 54 | 1016.1 |
| 20260901150113 | 85 | 182 | 2.0 | 11.0 | 0.00 | 0.00 | 0.00 | 55 | 1016.2 |
| 20260901145544 | 84 | 227 | 2.0 | 11.0 | 0.00 | 0.00 | 0.00 | 56 | 1016.2 |
| 20260901145044 | 83 | 156 | 2.0 | 10.0 | 0.00 | 0.00 | 0.00 | 57 | 1016.2 |
| 20260901144606 | 83 | 227 | 3.0 | 9.0 | 0.00 | 0.00 | 0.00 | 56 | 1016.2 |
| 20260901144235 | 84 | 171 | 2.0 | 9.0 | 0.00 | 0.00 | 0.00 | 55 | 1016.3 |
| 20260901141600 | 81 | 0 | 1.0 | 7.0 | 0.00 | 0.00 | 0.00 | 61 | 1016.2 |
| 20260901141044 | 80 | 144 | 1.0 | 7.0 | 0.00 | 0.00 | 0.00 | 63 | 1016.3 |
| 20260901140543 | 80 | 212 | 1.0 | 8.0 | 0.00 | 0.00 | 0.00 | 64 | 1016.6 |
| 20260901140135 | 79 | 142 | 1.0 | 8.0 | 0.00 | 0.00 | 0.00 | 65 | 1016.6 |
| 20260901135546 | 79 | 122 | 3.0 | 8.0 | 0.00 | 0.00 | 0.00 | 65 | 1016.5 |
| 20260901135041 | 78 | 148 | 1.0 | 4.0 | 0.00 | 0.00 | 0.00 | 66 | 1016.7 |
| 20260901134602 | 78 | 0 | 1.0 | 4.0 | 0.00 | 0.00 | 0.00 | 66 | 1016.9 |
| 20260901134046 | 77 | 0 | 1.0 | 4.0 | 0.00 | 0.00 | 0.00 | 67 | 1016.8 |
| 20260901133540 | 77 | 192 | 0.0 | 2.0 | 0.00 | 0.00 | 0.00 | 68 | 1016.9 |
| 20260901133103 | 77 | 0 | 0.0 | 2.0 | 0.00 | 0.00 | 0.00 | 67 | 1016.8 |
| 20260901132543 | 77 | 0 | 0.0 | 3.0 | 0.00 | 0.00 | 0.00 | 67 | 1016.8 |
| 20260901132040 | 76 | 234 | 0.0 | 3.0 | 0.00 | 0.00 | 0.00 | 68 | 1016.6 |
| 20260901131558 | 76 | 227 | 0.0 | 2.0 | 0.00 | 0.00 | 0.00 | 70 | 1016.5 |
| 20260901131040 | 76 | 0 | 0.0 | 4.0 | 0.00 | 0.00 | 0.00 | 69 | 1016.6 |
| 20260901130544 | 76 | 0 | 1.0 | 4.0 | 0.00 | 0.00 | 0.00 | 68 | 1016.6 |
| 20260901130105 | 75 | 200 | 1.0 | 4.0 | 0.00 | 0.00 | 0.00 | 68 | 1016.5 |
| 20260901125545 | 75 | 0 | 0.0 | 2.0 | 0.00 | 0.00 | 0.00 | 70 | 1016.4 |
| 20260901125044 | 75 | 0 | 0.0 | 5.0 | 0.00 | 0.00 | 0.00 | 70 | 1016.2 |
| 20260901124601 | 74 | 191 | 0.0 | 6.0 | 0.00 | 0.00 | 0.00 | 70 | 1016.3 |
| 20260901124043 | 74 | 242 | 2.0 | 6.0 | 0.00 | 0.00 | 0.00 | 71 | 1016.2 |
| 20260901123540 | 74 | 0 | 2.0 | 6.0 | 0.00 | 0.00 | 0.00 | 71 | 1016.2 |
| 20260901123058 | 73 | 0 | 0.0 | 4.0 | 0.00 | 0.00 | 0.00 | 72 | 1016.1 |
| 20260901122540 | 73 | 0 | 0.0 | 3.0 | 0.00 | 0.00 | 0.00 | 72 | 1016.1 |
| 20260901122041 | 73 | 0 | 0.0 | 4.0 | 0.00 | 0.00 | 0.00 | 73 | 1016.1 |
| 20260901121607 | 73 | 26 | 0.0 | 4.0 | 0.00 | 0.00 | 0.00 | 73 | 1016.1 |
| 20260901121041 | 73 | 186 | 1.0 | 4.0 | 0.00 | 0.00 | 0.00 | 73 | 1016.0 |